N5VKM Weather Reports


Display with metric or nautical units.
time (UTC)temp
F
wind
direction
speed
MPH
gust
MPH
rain 1hr
in
rain 24hr
in
rain mn
in
humidity
%
barometer
mb
20260509101534 68 334 0.0 0.0 0.00 0.21 0.01 92 1008.9
20260509101041 68 334 0.0 0.0 0.00 0.21 0.01 92 1008.9
20260509100537 68 334 0.0 0.0 0.00 0.21 0.01 92 1008.7
20260509100046 68 334 0.0 0.0 0.00 0.21 0.01 92 1008.6
20260509095533 68 334 0.0 0.0 0.00 0.21 0.01 92 1008.5
20260509095047 68 333 0.0 0.0 0.00 0.21 0.01 92 1008.6
20260509094538 68 333 0.0 0.0 0.00 0.21 0.01 91 1008.6
20260509094029 69 334 0.0 0.0 0.00 0.21 0.01 92 1008.6
20260509093539 69 333 0.0 0.0 0.00 0.21 0.01 92 1008.3
20260509093050 69 335 0.0 0.0 0.00 0.21 0.01 92 1008.4
20260509092539 69 333 0.0 0.0 0.00 0.21 0.01 91 1008.6
20260509092036 69 333 0.0 0.0 0.00 0.21 0.01 92 1008.5
20260509091606 69 333 0.0 0.0 0.00 0.21 0.01 91 1008.7
20260509091038 69 333 0.0 0.0 0.00 0.21 0.01 91 1008.8
20260509090556 69 333 0.0 0.0 0.00 0.21 0.01 91 1009.0
20260509090045 69 332 0.0 0.0 0.00 0.21 0.01 91 1009.1
20260509085535 69 333 0.0 0.0 0.00 0.21 0.01 91 1009.1
20260509085046 69 332 0.0 0.0 0.00 0.21 0.01 91 1009.1
20260509084536 69 332 0.0 0.0 0.00 0.21 0.01 91 1008.8
20260509084106 69 333 0.0 0.0 0.00 0.21 0.01 91 1008.8
20260509083536 69 333 0.0 0.0 0.00 0.21 0.01 91 1008.6
20260509083043 69 333 0.0 0.0 0.00 0.21 0.01 91 1008.4
20260509082533 69 333 0.0 0.0 0.00 0.21 0.01 91 1008.4
20260509082041 69 333 0.0 0.0 0.00 0.21 0.01 91 1008.4
20260509081553 69 333 0.0 0.0 0.00 0.21 0.01 91 1008.7
20260509081028 69 333 0.0 0.0 0.00 0.21 0.01 91 1009.0
20260509080543 69 333 0.0 0.0 0.00 0.21 0.01 91 1009.3
20260509080035 69 333 0.0 0.0 0.00 0.21 0.01 91 1009.3
20260509075548 69 333 0.0 0.0 0.00 0.21 0.01 91 1009.4
20260509075055 69 333 0.0 0.0 0.00 0.21 0.01 91 1009.6
20260509074546 68 333 0.0 0.0 0.00 0.21 0.01 91 1009.6
20260509074035 68 334 0.0 0.0 0.00 0.21 0.01 91 1009.6
20260509073542 68 334 0.0 0.0 0.00 0.21 0.01 91 1009.8
20260509073034 68 333 0.0 0.0 0.00 0.21 0.01 90 1010.1
20260509072542 68 333 0.0 0.0 0.00 0.21 0.01 90 1010.3
20260509072033 68 333 0.0 0.0 0.00 0.21 0.01 90 1010.3
20260509071541 68 333 0.0 0.0 0.00 0.21 0.01 90 1010.4
20260509071032 69 333 0.0 0.0 0.00 0.21 0.01 90 1010.4
20260509070539 69 333 0.0 0.0 0.00 0.21 0.01 90 1010.4
20260509070047 69 333 0.0 0.0 0.00 0.21 0.01 90 1010.7
20260509065538 69 333 0.0 0.0 0.00 0.21 0.01 90 1010.9
20260509065028 69 333 0.0 0.0 0.00 0.21 0.01 91 1011.0
20260509064559 68 332 0.0 0.0 0.00 0.21 0.01 91 1011.0
20260509064047 68 332 0.0 0.0 0.00 0.21 0.01 91 1011.1
20260509063539 68 332 0.0 0.0 0.00 0.21 0.01 91 1010.9
20260509063047 68 332 0.0 0.0 0.00 0.21 0.01 91 1011.0
20260509062539 68 335 0.0 0.0 0.00 0.21 0.01 91 1011.1
20260509062031 68 333 0.0 0.0 0.00 0.21 0.01 91 1010.9
20260509061558 68 335 0.0 0.0 0.00 0.21 0.01 91 1010.3
20260509061046 68 335 0.0 0.0 0.01 0.21 0.01 91 1010.2
20260509060538 68 335 0.0 0.0 0.01 0.21 0.01 91 1009.7
20260509060046 68 335 0.0 0.0 0.01 0.21 0.01 91 1009.6
20260509055539 67 335 0.0 0.0 0.01 0.21 0.01 91 1009.4
20260509055031 67 335 0.0 0.0 0.01 0.21 0.01 91 1009.6
20260509054537 67 335 0.0 0.0 0.01 0.21 0.01 91 1009.8
20260509054030 67 335 0.0 0.0 0.01 0.21 0.01 91 1010.1
20260509053606 67 335 0.0 0.0 0.01 0.21 0.01 91 1010.1
20260509053036 67 335 0.0 0.0 0.01 0.21 0.01 90 1010.2
20260509052546 67 336 0.0 0.0 0.01 0.21 0.01 90 1010.4
20260509052040 67 336 0.0 0.0 0.01 0.21 0.01 90 1010.6
20260509051529 67 336 0.0 0.0 0.01 0.21 0.01 90 1010.5
20260509051039 68 336 0.0 0.0 0.00 0.20 0.00 90 1010.8
20260509050530 68 336 0.0 0.0 0.00 0.20 0.00 90 1010.6
20260509050041 68 336 0.0 0.0 0.00 0.20 0.00 89 1010.8
20260509045532 68 336 0.0 0.0 0.00 0.20 0.20 89 1010.8
20260509045039 68 336 0.0 0.0 0.00 0.20 0.20 89 1010.7
20260509044548 68 335 0.0 0.0 0.00 0.20 0.20 89 1010.5
20260509044041 69 335 0.0 0.0 0.00 0.20 0.20 88 1010.4
20260509043529 69 335 0.0 0.0 0.00 0.20 0.20 88 1010.5
20260509043043 69 335 0.0 0.0 0.00 0.20 0.20 88 1010.7
20260509042534 69 335 0.0 0.0 0.00 0.20 0.20 88 1010.4
20260509042107 69 335 0.0 0.0 0.00 0.20 0.20 88 1010.3
20260509041604 69 335 0.0 0.0 0.00 0.20 0.20 88 1010.1
20260509041034 69 335 0.0 0.0 0.00 0.20 0.20 88 1010.0
20260509040541 69 334 0.0 0.0 0.00 0.20 0.20 88 1010.0
20260509040049 69 334 0.0 0.0 0.00 0.20 0.20 88 1010.1
20260509035600 69 334 0.0 0.0 0.00 0.20 0.20 88 1010.0
20260509035046 69 334 0.0 0.0 0.00 0.20 0.20 87 1010.0
20260509034533 69 333 0.0 0.0 0.00 0.20 0.20 87 1009.6
20260509034027 69 333 0.0 0.0 0.00 0.20 0.20 87 1009.9
20260509033546 69 335 0.0 0.0 0.00 0.20 0.20 87 1010.3
20260509033033 70 336 0.0 0.0 0.00 0.20 0.20 86 1009.8
20260509032540 70 336 0.0 0.0 0.00 0.20 0.20 85 1009.8
20260509032032 70 333 0.0 0.0 0.00 0.20 0.20 84 1009.6
20260509031541 71 334 0.0 0.0 0.00 0.20 0.20 83 1009.9
20260509031055 71 334 0.0 0.0 0.00 0.20 0.20 82 1009.6
20260509030545 71 334 0.0 0.0 0.00 0.20 0.20 81 1009.8
20260509030035 71 335 0.0 0.0 0.00 0.20 0.20 81 1009.9
20260509025544 71 332 0.0 0.0 0.00 0.20 0.20 81 1010.3
20260509025032 71 333 0.0 0.0 0.00 0.20 0.20 81 1010.5
20260509024605 71 334 0.0 0.0 0.00 0.20 0.20 81 1010.5
20260509024035 71 334 0.0 0.0 0.00 0.20 0.20 81 1010.4
20260509023544 71 334 0.0 0.0 0.00 0.20 0.20 81 1010.2
20260509023030 71 334 0.0 0.0 0.00 0.20 0.20 81 1010.1
20260509022544 71 334 0.0 0.0 0.00 0.20 0.20 81 1009.9
20260509022035 71 334 0.0 0.0 0.00 0.20 0.20 81 1009.8
20260509021545 71 334 0.0 0.0 0.00 0.20 0.20 80 1009.8
20260509021035 71 333 0.0 0.0 0.00 0.20 0.20 80 1009.6
20260509020533 71 333 0.0 0.0 0.00 0.20 0.20 79 1009.3
20260509020107 71 334 0.0 0.0 0.00 0.20 0.20 79 1009.1
20260509015540 72 334 0.0 0.0 0.00 0.20 0.20 79 1009.0
20260509015048 72 333 0.0 0.0 0.00 0.20 0.20 78 1008.9
20260509014534 72 334 0.0 0.0 0.00 0.20 0.20 78 1008.7
20260509014042 72 334 0.0 0.0 0.00 0.20 0.20 78 1008.7
20260509013553 72 334 0.0 0.0 0.00 0.20 0.20 78 1008.8
20260509013041 72 335 0.0 0.0 0.00 0.20 0.20 77 1008.9
20260509012528 72 334 0.0 0.0 0.00 0.20 0.20 77 1008.8
20260509012041 72 334 0.0 0.0 0.00 0.20 0.20 76 1008.7
20260509011558 73 335 0.0 0.0 0.00 0.20 0.20 76 1008.7
20260509011046 73 334 0.0 0.0 0.00 0.20 0.20 76 1008.7
20260509010544 73 334 0.0 0.0 0.00 0.20 0.20 75 1008.7
20260509010032 73 334 0.0 0.0 0.00 0.20 0.20 75 1008.8
20260509005539 73 333 0.0 0.0 0.01 0.20 0.20 75 1008.7
20260509005034 74 334 0.0 0.0 0.01 0.20 0.20 75 1008.7
20260509004548 74 334 0.0 0.0 0.01 0.20 0.20 75 1008.7
20260509004040 74 335 0.0 0.0 0.01 0.20 0.20 75 1008.6
20260509003531 74 336 0.0 0.0 0.01 0.20 0.20 75 1008.6
20260509003040 74 334 0.0 0.0 0.01 0.20 0.20 75 1008.5
20260509002535 74 333 0.0 0.0 0.01 0.20 0.20 75 1008.3